Powrót do katalogu

STARLINK-35726

AktywnyŁącznośćVLEO
NORAD 66280·PAYLOAD·🇺🇸 United States

Wystrzelony Oct 31, 2025 z Vandenberg Space Force Base

Loading…

Następne Przeloty (najbliższe 24 godziny)

TLE

ŚwieżeSource: CelesTrak SupGP

Epoka: Sep 15, 2026, 03:10 UTC

1 66280C 25247R   26258.13243056  .00029110  00000+0  86024-3 0  2582
2 66280  53.1601  26.9157 0000976  91.9568 239.0754 15.34369514    12

Śledź STARLINK-35726 w czasie rzeczywistym z AllMySat

Download on the App Store